Weather in Novyy Svet

Russia / Omsk Oblast     55°07′11″N   74°51′27″E
temp.,
°C
wind,
m/s
gust,
m/s
humid.,
%
clouds,
%
prec.,
mm/h
press.,
hPa
HPBL,
m
25 june, sat
sat2500:00+20wsw22848 0.1 100622
03:00+18wnw35955 0.1 100585
06:00+18w369051 0.1 1005158
09:00+20nw3484100 0.3 1005362
12:00+26w3661100 0.3 10031093
15:00+22w377895 2.4 1004573
18:00+21ene458898 3.4 1001190
21:00+19e4797100 1.7 999211
26 june, sun
sun2600:00+17e229782 1.9 99828
03:00+17ese3698100 2.1 994259
06:00+18nw3498100 2.2 994243
09:00+17nnw579099 0.1 996525
12:00+22wnw56617 0.2 9971452
15:00+24w685027 0.0 9972118
18:00+21wnw596650 0.1 998711
21:00+18w488121 0.4 998177
27 june, mon
mon2700:00+15w4992100 0.6 999384
03:00+12w511946 0.2 999406
06:00+10w511920 0.2 1000480
09:00+12wnw6878100 0.0 1001926
12:00+13wnw7968100 0.4 10021366
15:00+14w81165100 0.4 10021691
18:00+14wnw81273100 0.5 10031358
21:00+12w71278100 0.0 10051226
28 june, tue
tue2800:00+12w61078100 0.1 1005823
03:00+11wsw51077100 0.0 1005603
06:00+11wsw597882 0.0 1006582
09:00+14wsw576829 0.0 10061094
12:00+16sw5758100 0.1 10061594
15:00+18sw5755100 0.0 10051698
18:00+13s2486100 0.5 1005123
21:00+13se3890100 0.4 1003194
29 june, wed
wed2900:00+13s61090100 0.8 1002340
03:00+13s3695100 0.6 999188
06:00+12se3698100 10.1 996265
09:00+13se41096100 11.3 991823
12:00+9w8139388 23.3 992925
15:00+13wsw101469100 0.7 9931739
18:00+11wsw111785100 1.9 9921386
21:00+9wsw142292100 4.4 9901422